User: anonymous   Login
Location: Unspecified
(0.0000°N, 0.0000°E)
Time: 21:34:27
(UTC+00:00)
Language:

S-NET C - Orbit

View from above orbital plane
View from above orbital plane
View from above satellite
View from above satellite

Ground track
Ground track

The orbit data is extracted from the following two-line orbital elements,

1 43189U 18014K   19047.27328037  .00000084  00000-0  12452-4 0  9992
2 43189  97.7161 317.4486 0012169  59.1181 301.1235 14.96577866 55379
Epoch (UTC): 16 February 2019 06:33:31
Eccentricity: 0.0012169
inclination: 97.7161°
perigee height: 569 km
apogee height: 586 km
right ascension of ascending node: 317.4486°
argument of perigee: 59.1181°
revolutions per day: 14.96577866
mean anomaly at epoch: 301.1235°
orbit number at epoch: 5537

The dashed part of the orbit path shows where the satellite is in the earth's shadow,  

DLR